Location: Kirchberg
(47.4114°N, 9.0398°E)
Time: 07:48:28
(UTC+00:00)

Cosmos 2263 Rocket - Pass Details

Date: 03 March 2021
Orbit: 825 x 847 km, 71.0° (Epoch: 13 April)

Event Time Altitude Azimuth Distance (km) Brightness Sun altitude
Rises 17:47:10 0° 328° (NNW) 3,373 5.8 -6.7°
Reaches altitude 10° 17:49:39 10° 324° (NW) 2,435 5.1 -7.2°
Maximum altitude 17:55:01 50° 250° (WSW) 1,040 3.2 -8.1°
Drops below altitude 10° 18:00:21 10° 176° (S) 2,422 4.6 -9.0°
Sets 18:02:50 0° 171° (S) 3,353 5.2 -9.4°
